Location: Chevoux
(46.3801°N, 4.9476°E)
Time: 21:33:29
(UTC+00:00)

Cosmos 1825 Rocket - Pass Details

Date: 28 January 2021
Orbit: 604 x 630 km, 82.5° (Epoch: 04 March)

Event Time Altitude Azimuth Distance (km) Brightness Sun altitude
Rises 17:42:04 0° 165° (SSE) 2,872 7.0 -11.1°
Reaches altitude 10° 17:44:24 10° 157° (SSE) 1,976 6.1 -11.4°
Maximum altitude 17:48:24 36° 91° (E) 990 4.1 -12.1°
Drops below altitude 10° 17:52:27 10° 25° (NNE) 2,007 5.8 -12.8°
Sets 17:54:50 0° 17° (NNE) 2,922 6.7 -13.2°
